Peru, IL

1:16 AM CST on December 17, 2017 (GMT -0600)
Illinois Valley Regional-Duncan

Weather History for KVYS - October, 2011

Change the Weather History Date:

Thursday, October 13, 2011

  Actual Average Record
Temperature  
Mean Temperature 64 °F -  
Max Temperature 68 °F 66 °F 86 °F (1975)
Min Temperature 60 °F 42 °F 23 °F (1988)
Degree Days  
Heating Degree Days 1    
Growing Degree Days 14 (Base 50)    
Moisture  
Dew Point 58 °F    
Average Humidity 84    
Maximum Humidity 94    
Minimum Humidity 55    
Precipitation  
Precipitation 0.44 in - - ()
Sea Level Pressure  
Sea Level Pressure 29.57 in    
Wind  
Wind Speed 5 mph (WNW)    
Max Wind Speed 17 mph    
Max Gust Speed 25 mph    
Visibility 7 miles    
Events Rain    
Averages and records for this station are not official NWS values.
T = Trace of Precipitation, MM = Missing Value Source: NWS Daily Summary

Daily Weather History Graph

Daily Weather History Graph

Search for Another Location

Airport or City:

Trip Planner

Search our weather history database for the weather conditions in past years. The results will help you decide how hot, cold, wet, or windy it might be!

Date:

Astronomy

Oct. 13, 2011 Rise Set
Actual Time 7:05 AM CDT 6:19 PM CDT
Civil Twilight 6:38 AM CDT 6:46 PM CDT
Nautical Twilight 6:06 AM CDT 7:18 PM CDT
Astronomical Twilight 5:34 AM CDT 7:50 PM CDT
Moon 6:52 PM CDT (10/13) 8:39 AM CDT (10/13)
Length of Visible Light 12h 08m
Length of Day
11h 13m
Full, 98% of the Moon is Illuminated
Oct 13
Full
Oct 19
Last Quarter
Oct 26
New
Nov 2
First Quarter
Nov 10
Full

Hourly Weather History & Observations

Time (CDT) Temp. Dew Point Humidity Pressure Visibility Wind Dir Wind Speed Gust Speed Precip Events Conditions
12:15 AM 64.4 °F 60.8 °F 88% 29.62 in 5.0 mi SSE 8.1 mph - N/A Rain Rain
12:35 AM 64.4 °F 60.8 °F 88% 29.63 in 7.0 mi West 11.5 mph - 0.01 in Rain Rain
12:55 AM 62.6 °F 59.0 °F 88% 29.63 in 7.0 mi WSW 4.6 mph - 0.02 in Rain Rain
1:15 AM 62.6 °F 59.0 °F 88% 29.63 in 5.0 mi SW 4.6 mph - 0.03 in Rain Rain
1:35 AM 62.6 °F 59.0 °F 88% 29.62 in 5.0 mi WSW 4.6 mph - 0.08 in Rain Light Rain
1:55 AM 62.6 °F 59.0 °F 88% 29.61 in 5.0 mi Calm Calm - 0.12 in Rain Rain
2:15 AM 60.8 °F 59.0 °F 94% 29.61 in 4.0 mi Calm Calm - 0.03 in Rain Rain
2:35 AM 60.8 °F 59.0 °F 94% 29.60 in 4.0 mi Calm Calm - 0.06 in Rain Rain
2:55 AM 60.8 °F 59.0 °F 94% 29.60 in 5.0 mi Calm Calm - 0.08 in Rain Light Rain
3:15 AM 60.8 °F 59.0 °F 94% 29.59 in 4.0 mi Calm Calm - 0.02 in Rain Rain
3:35 AM 60.8 °F 59.0 °F 94% 29.59 in 7.0 mi Calm Calm - 0.04 in Rain Rain
3:55 AM 60.8 °F 59.0 °F 94% 29.59 in 10.0 mi Calm Calm - 0.05 in Rain Light Rain
4:15 AM 60.8 °F 59.0 °F 94% 29.59 in 7.0 mi Calm Calm - 0.01 in Rain Light Rain
4:35 AM 60.8 °F 57.2 °F 88% 29.58 in 5.0 mi Calm Calm - 0.03 in Rain Light Rain
4:55 AM 60.8 °F 59.0 °F 94% 29.58 in 5.0 mi Calm Calm - 0.05 in Rain Light Rain
5:15 AM 60.8 °F 59.0 °F 94% 29.58 in 7.0 mi Calm Calm - 0.01 in Rain Light Rain
5:35 AM 60.8 °F 59.0 °F 94% 29.58 in 7.0 mi Calm Calm - 0.03 in Rain Rain
5:55 AM 60.8 °F 59.0 °F 94% 29.58 in 5.0 mi Calm Calm - 0.04 in Rain Light Rain
6:15 AM 60.8 °F 59.0 °F 94% 29.58 in 7.0 mi Calm Calm - 0.01 in   Light Drizzle
6:35 AM 60.8 °F 59.0 °F 94% 29.58 in 10.0 mi Calm Calm - 0.01 in   Drizzle
6:55 AM 60.8 °F 59.0 °F 94% 29.57 in 10.0 mi Calm Calm - 0.01 in   Light Drizzle
7:15 AM 60.8 °F 59.0 °F 94% 29.57 in 10.0 mi Calm Calm - N/A   Drizzle
7:35 AM 60.8 °F 59.0 °F 94% 29.57 in 10.0 mi Calm Calm - 0.01 in   Light Drizzle
7:55 AM 60.8 °F 59.0 °F 94% 29.57 in 7.0 mi Calm Calm - 0.01 in   Overcast
8:15 AM 60.8 °F 59.0 °F 94% 29.57 in 7.0 mi Calm Calm - N/A   Light Drizzle
8:35 AM 60.8 °F 59.0 °F 94% 29.57 in 7.0 mi Calm Calm - N/A   Overcast
8:55 AM 60.8 °F 59.0 °F 94% 29.57 in 5.0 mi WNW 4.6 mph - N/A   Overcast
9:15 AM 60.8 °F 59.0 °F 94% 29.57 in 4.0 mi WNW 3.5 mph - N/A   Overcast
9:35 AM 60.8 °F 59.0 °F 94% 29.57 in 4.0 mi WNW 3.5 mph - N/A   Light Drizzle
9:55 AM 62.6 °F 59.0 °F 88% 29.57 in 4.0 mi WNW 3.5 mph - N/A   Overcast
10:15 AM 62.6 °F 59.0 °F 88% 29.57 in 4.0 mi NW 3.5 mph - N/A   Overcast
10:35 AM 62.6 °F 59.0 °F 88% 29.57 in 4.0 mi West 5.8 mph - N/A   Overcast
10:55 AM 62.6 °F 59.0 °F 88% 29.57 in 4.0 mi WNW 4.6 mph - N/A   Overcast
11:15 AM 62.6 °F 59.0 °F 88% 29.56 in 5.0 mi WNW 5.8 mph - N/A   Overcast
11:35 AM 62.6 °F 59.0 °F 88% 29.57 in 7.0 mi West 5.8 mph - N/A   Overcast
11:55 AM 62.6 °F 59.0 °F 88% 29.56 in 7.0 mi WNW 8.1 mph - N/A   Overcast
12:15 PM 64.4 °F 59.0 °F 83% 29.56 in 10.0 mi NW 6.9 mph - N/A   Overcast
12:35 PM 64.4 °F 59.0 °F 83% 29.55 in 10.0 mi NW 6.9 mph - N/A   Overcast
12:55 PM 66.2 °F 59.0 °F 78% 29.54 in 10.0 mi WNW 8.1 mph - N/A   Overcast
1:15 PM 64.4 °F 59.0 °F 83% 29.54 in 10.0 mi WNW 13.8 mph 19.6 mph N/A   Overcast
1:35 PM 62.6 °F 59.0 °F 88% 29.54 in 3.0 mi WNW 13.8 mph - 0.06 in Rain Light Rain
1:55 PM 62.6 °F 60.8 °F 94% 29.53 in 5.0 mi WNW 11.5 mph - 0.06 in Rain Light Rain
2:15 PM 64.4 °F 60.8 °F 88% 29.53 in 10.0 mi NW 12.7 mph - N/A   Overcast
2:35 PM 64.4 °F 60.8 °F 88% 29.53 in 10.0 mi WNW 15.0 mph - N/A   Overcast
2:55 PM 64.4 °F 59.0 °F 83% 29.53 in 10.0 mi WNW 13.8 mph 24.2 mph N/A   Overcast
3:15 PM 66.2 °F 57.2 °F 73% 29.53 in 10.0 mi NW 12.7 mph - N/A   Overcast
3:35 PM 66.2 °F 57.2 °F 73% 29.53 in 10.0 mi NW 10.4 mph - N/A   Overcast
3:55 PM 66.2 °F 57.2 °F 73% 29.53 in 10.0 mi NW 9.2 mph - N/A   Overcast
4:15 PM 66.2 °F 57.2 °F 73% 29.53 in 10.0 mi WNW 5.8 mph - N/A   Mostly Cloudy
4:35 PM 68.0 °F 57.2 °F 68% 29.52 in 10.0 mi WNW 17.3 mph 21.9 mph N/A   Mostly Cloudy
4:55 PM 68.0 °F 53.6 °F 60% 29.53 in 10.0 mi WNW 17.3 mph 25.3 mph N/A   Scattered Clouds
5:15 PM 68.0 °F 53.6 °F 60% 29.53 in 10.0 mi WNW 12.7 mph - N/A   Clear
5:35 PM 68.0 °F 53.6 °F 60% 29.53 in 10.0 mi WNW 11.5 mph - N/A   Clear
5:55 PM 66.2 °F 50.0 °F 56% 29.53 in 10.0 mi WNW 10.4 mph - N/A   Clear
6:15 PM 66.2 °F 50.0 °F 56% 29.53 in 10.0 mi WNW 11.5 mph 16.1 mph N/A   Clear
6:35 PM 64.4 °F 48.2 °F 56% 29.54 in 10.0 mi WNW 13.8 mph - N/A   Clear
6:55 PM 64.4 °F 48.2 °F 56% 29.54 in 10.0 mi WNW 12.7 mph 18.4 mph N/A   Clear
7:15 PM 62.6 °F 46.4 °F 55% 29.55 in 10.0 mi WNW 13.8 mph 18.4 mph N/A   Clear
7:35 PM 62.6 °F 44.6 °F 52% 29.56 in 10.0 mi WNW 11.5 mph 17.3 mph N/A   Clear
7:55 PM 62.6 °F 44.6 °F 52% 29.56 in 10.0 mi WNW 13.8 mph - N/A   Clear
8:15 PM 60.8 °F 44.6 °F 55% 29.57 in 10.0 mi WNW 13.8 mph 20.7 mph N/A   Clear
8:35 PM 60.8 °F 44.6 °F 55% 29.58 in 10.0 mi WNW 13.8 mph 19.6 mph N/A   Clear
8:55 PM 59.0 °F 44.6 °F 59% 29.58 in 10.0 mi WNW 13.8 mph 18.4 mph N/A   Clear
9:15 PM 59.0 °F 44.6 °F 59% 29.59 in 10.0 mi WNW 12.7 mph 19.6 mph N/A   Clear
9:35 PM 59.0 °F 46.4 °F 63% 29.59 in 10.0 mi WNW 13.8 mph - N/A   Clear
9:55 PM 59.0 °F 46.4 °F 63% 29.60 in 10.0 mi WNW 15.0 mph - N/A   Clear
10:15 PM 57.2 °F 44.6 °F 63% 29.60 in 10.0 mi WNW 13.8 mph 21.9 mph N/A   Clear
10:35 PM 57.2 °F 44.6 °F 63% 29.60 in 10.0 mi WNW 12.7 mph 21.9 mph N/A   Clear
10:55 PM 55.4 °F 44.6 °F 67% 29.60 in 10.0 mi WNW 11.5 mph - N/A   Clear
11:15 PM 55.4 °F 44.6 °F 67% 29.60 in 10.0 mi WNW 10.4 mph - N/A   Clear
11:35 PM 55.4 °F 46.4 °F 72% 29.60 in 10.0 mi WNW 10.4 mph 17.3 mph N/A   Clear
11:55 PM 53.6 °F 46.4 °F 77% 29.60 in 10.0 mi WNW 9.2 mph - N/A   Clear